This is the latest recevied weather packets stored in our database for station/object W3BRL. If no packets are shown the sender has not sent any weather packets the latest 1 day(s).
| Time | Temp. | Humidity | Pressure | Rain* | Wind** | Luminosity | Snow |
|---|---|---|---|---|---|---|---|
| 1778004602 | 22.78° C | 44% | 1006.5 hPa | 0 mm | 3.58 m/s, 243° | 544 W/m² | - |
| 1778004298 | 22.78° C | 44% | 1006.3 hPa | 0 mm | 3.58 m/s, 191° | 458 W/m² | - |
| 1778003995 | 22.22° C | 44% | 1006.4 hPa | 0 mm | 2.24 m/s, 272° | 364 W/m² | - |
| 1778003691 | 22.78° C | 44% | 1006.5 hPa | 0 mm | 4.02 m/s, 246° | 286 W/m² | - |
| 1778003388 | 22.78° C | 44% | 1006.3 hPa | 0 mm | 2.24 m/s, 241° | 309 W/m² | - |
| 1778003085 | 22.78° C | 43% | 1006.2 hPa | 0 mm | 2.24 m/s, 222° | 325 W/m² | - |
| 1778002781 | 22.78° C | 43% | 1006 hPa | 0 mm | 1.79 m/s, 202° | 438 W/m² | - |
| 1778002478 | 22.78° C | 43% | 1006 hPa | 0 mm | 2.24 m/s, 9° | 424 W/m² | - |
| 1778002175 | 22.78° C | 42% | 1005.9 hPa | 0 mm | 5.36 m/s, 206° | 318 W/m² | - |
| 1778001873 | 22.78° C | 42% | 1005.7 hPa | 0 mm | 5.36 m/s, 232° | 334 W/m² | - |
| 1778001572 | 22.78° C | 42% | 1005.8 hPa | 0 mm | 5.36 m/s, 227° | 374 W/m² | - |
| 1778001270 | 22.78° C | 42% | 1005.8 hPa | 0 mm | 3.13 m/s, 221° | 363 W/m² | - |
| 1778000966 | 22.78° C | 42% | 1005.8 hPa | 0 mm | 4.02 m/s, 228° | 396 W/m² | - |
| 1778000663 | 22.78° C | 42% | 1006 hPa | 0 mm | 3.13 m/s, 215° | 398 W/m² | - |
| 1778000358 | 22.78° C | 43% | 1005.9 hPa | 0 mm | 1.79 m/s, 108° | 355 W/m² | - |
| 1778000054 | 22.78° C | 44% | 1005.9 hPa | 0 mm | 3.13 m/s, 178° | 258 W/m² | - |
| 1777999749 | 22.22° C | 44% | 1005.9 hPa | 0 mm | 5.36 m/s, 198° | 417 W/m² | - |
| 1777999447 | 22.78° C | 43% | 1006.1 hPa | 0 mm | 3.58 m/s, 230° | 299 W/m² | - |
| 1777999145 | 22.78° C | 43% | 1006.3 hPa | 0 mm | 4.47 m/s, 234° | 434 W/m² | - |
| 1777998844 | 22.78° C | 44% | 1006.5 hPa | 0 mm | 3.58 m/s, 251° | 302 W/m² | - |
| 1777998542 | 22.78° C | 43% | 1006.2 hPa | 0 mm | 5.36 m/s, 213° | 294 W/m² | - |
| 1777998237 | 22.78° C | 43% | 1006.1 hPa | 0 mm | 2.24 m/s, 223° | 233 W/m² | - |
| 1777997934 | 22.78° C | 42% | 1006 hPa | 0 mm | 4.92 m/s, 256° | 717 W/m² | - |
| 1777997631 | 22.78° C | 43% | 1006.3 hPa | 0 mm | 4.02 m/s, 202° | 373 W/m² | - |
| 1777997329 | 23.33° C | 42% | 1006.3 hPa | 0 mm | 5.81 m/s, 246° | 458 W/m² | - |
* Rain latest hour (hover to see other rain measurements)
** Current wind speed in m/s (hover to see current wind gust speed)